Regional Weather Roundup
Issued by NWS Newport/Morehead, NC

Current Version | Previous Version | Graphics & Text | Print | Product List | Glossary Off
Versions: 1 2 3 4 5 6 7 8 9 10 11 12 13 14 15 16 17 18 19 20 21 22 23 24 25 26 27 28 29 30 31 32 33 34 35 36 37 38 39 40 41 42 43 44 45 46 47 48 49 50

000
ASUS42 KMHX 270013
RWRMHX
WEATHER ROUNDUP FOR EASTERN NORTH CAROLINA
NATIONAL WEATHER SERVICE NEWPORT/MOREHEAD CITY NC
800 PM EDT TUE JUL 26 2016

NOTE: "FAIR" INDICATES FEW OR NO CLOUDS BELOW 12,000 FEET
WITH NO SIGNIFICANT WEATHER AND/OR OBSTRUCTIONS TO VISIBILITY

NCZ015>017-031-032-045>047-102-103-270100-
NORTH COAST

CITY           SKY/WX    TMP DP  RH WIND       PRES   REMARKS
EDENTON        CLOUDY    80  76  87 SE5       29.95F
ELIZABETH CITY CLOUDY    79  75  87 S13       29.95S
KITTY HAWK     LGT RAIN  79  74  84 CALM      29.95R
MANTEO         LGT RAIN  82  78  87 W9        29.97S

$$

NCZ045>047-081-094-103-104-270100-
CENTRAL COAST

CITY           SKY/WX    TMP DP  RH WIND       PRES   REMARKS
FRISCO         CLEAR     83  76  79 SW13G21   29.97R

$$

NCZ095-097-098-100-101-270100-
SOUTHERN COAST

CITY           SKY/WX    TMP DP  RH WIND       PRES   REMARKS
BEAUFORT       CLEAR     84  77  79 SW13      29.98R
CEDAR ISLAND   NOT AVBL
JACKSONVILLE   CLEAR     85  75  72 S6        29.97R
PINEY ISLAND   NOT AVBL
WILMINGTON     CLEAR     86  73  65 SW8       29.98R


$$

NCZ011>013-027>030-043-044-078>080-089-090>093-098-270100-
COASTAL PLAIN

CITY           SKY/WX    TMP DP  RH WIND       PRES   REMARKS
AHOSKIE        CLOUDY    76  75  96 CALM      29.95S
CLINTON        CLEAR     91  77  63 CALM      29.95R HX 103
ELIZABETHTOWN  CLEAR     91  77  63 S6        29.96R HX 104
GOLDSBORO      CLEAR     92  76  59 S6        29.93R HX 103
GREENVILLE     CLOUDY    90  79  70 CALM      29.96R HX 105
HAVELOCK       CLEAR     85  72  65 S9        29.98R
KENANSVILLE    NOT AVBL
KINSTON        NOT AVBL
NEW BERN       CLEAR     86  74  67 S8        29.97R
RICHLANDS      CLEAR     87  76  69 S8        29.97R
ROCKY MOUNT    CLOUDY    86  82  88 CALM      29.94R HX 104
WASHINGTON     PTCLDY    90  78  67 S6        29.94R HX 103
WHITEVILLE     CLEAR     88  76  67 S7        29.96R

$$

AMZ130-135-150-152-154-156-158-170-250-252-270-ANZ085-086-088-633-658-670-270100-
MARINE OBSERVATIONS

STATION/POSITION TIME  TEMP    WIND        PRES    WAVE   SWELL
                       AIR SEA DIR/SP/G            HT/PER HT/PER
                 (UTC) (F)     (DEG/KT/KT) (MB)    (FT/S) (FT/S)
CHESAPEAKE LIGHT NOT AVBL
64 E VA BEACH    2350   82 81  240/  2/  2 1013.6    3/ 6   3/ 6
DUCK             2300      64              1013.2
2 E DUCK         2311      73                N/A     1/ 8
OREGON INLET     2300      85              1013.6
13E OREGON INLT  0000      82                N/A     3/ 5   2/ 8
HATTERAS CG      2300      83              1013.9
DIAMOND BUOY     2350   85 85  230/ 17/ 21 1014.5    5/ 5
CAPE LOOKOUT     0000   84     230/ 12/ 15 1015.0
BEAUFORT LAB     2300      84              1014.2
30 SE NEW RVR IN 2308   85 85  230/ 16/ 19 1015.2
30 SE NEW RVR IN 2325      85                N/A     4/ 5
27 SE WRIGHTSVLE 2308   85 84  220/ 14/ 17 1015.3
5 SE WRIGHTSVLE  2308   83 81  220/ 12/ 16 1015.7
225 S CAPE HAT   2350   84 84  240/ 10/ 12 1017.1    2/ 5   2/ 8
41 SE CHARLESTON 2350   85 86  210/ 16/ 17 1015.2    3/ 4   2/ 8

$$




USA.gov is the U.S. government's official web portal to all federal, state and local government web resources and services.